Regional Weather Roundup
Issued by NWS

Home | Current Version | Previous Version | Text Only | Print | Product List | Glossary On
Versions: 1 2 3 4 5 6 7 8 9 10 11 12 13 14 15 16 17 18 19 20 21 22 23 24 25 26 27 28 29 30 31 32 33 34 35 36 37 38 39 40 41 42 43 44 45 46 47 48 49 50
000
ASUS45 KPSR 041210
RWRAZ

ARIZONA HOURLY REGIONAL WEATHER ROUNDUP
NATIONAL WEATHER SERVICE PHOENIX AZ
500 AM MST FRI SEP 04 2015

NOTE: FAIR INDICATES FEW OR NO CLOUDS BELOW 12,000 FEET WITH NO
SIGNIFICANT WEATHER AND/OR OBSTRUCTIONS TO VISIBILITY.

AZZ001>003-036-041300-
NORTHWEST ARIZONA

CITY           SKY/WX    TMP DP  RH WIND       PRES   REMARKS
BULLHEAD CITY  CLEAR     84  61  45 S12G20    29.75R
KINGMAN        CLEAR     67  57  70 E8        29.92S
6HR MIN TEMP:  65; 6HR MAX TEMP:  76;

$$

AZZ004>008-015-016-018-041300-
NORTH CENTRAL ARIZONA

CITY           SKY/WX    TMP DP  RH WIND       PRES   REMARKS
GRAND CANYON   PTCLDY    52  49  89 SW3       30.15S
6HR MIN TEMP:  52; 6HR MAX TEMP:  62;

WILLIAMS       CLEAR     54  50  87 SE6       30.19S
PRESCOTT       CLEAR     57  54  89 W3        30.06R
6HR MIN TEMP:  57; 6HR MAX TEMP:  64;

FLAGSTAFF      PTCLDY    51  50  96 CALM      30.16F
6HR MIN TEMP:  51; 6HR MAX TEMP:  58;

PAYSON         CLEAR     61  57  88 SE5       30.08S
PAGE           PTCLDY    71  53  52 SW6       29.96R
6HR MIN TEMP:  71; 6HR MAX TEMP:  75;

$$

AZZ009>014-017-041300-
NORTHEAST ARIZONA

CITY           SKY/WX    TMP DP  RH WIND       PRES   REMARKS
WINSLOW        MOCLDY    60  58  92 E6        30.04S
6HR MIN TEMP:  59; 6HR MAX TEMP:  65;

SAINT JOHNS    CLOUDY    60  58  92 CALM      30.09R
6HR MIN TEMP:  58; 6HR MAX TEMP:  60; 6HR PCP: TRACE;

WINDOW ROCK    LGT RAIN  57  51  80 NW3       30.16S
6HR MIN TEMP:  56; 6HR MAX TEMP:  63; 6HR PCP:  0.02;

SHOW LOW       CLOUDY    57  50  77 S8        30.13S
$$

AZZ023-041300-
GREATER PHOENIX AREA

CITY           SKY/WX    TMP DP  RH WIND       PRES   REMARKS
PHOENIX        PTCLDY    77  64  64 SE6       29.82S
6HR MIN TEMP:  77; 6HR MAX TEMP:  79;

BUCKEYE        MOCLDY    73  66  78 NE3       29.83S
LUKE AFB       MOCLDY    77  64  64 NW2       29.82R
6HR MIN TEMP:  76; 6HR MAX TEMP:  80;

DEER VALLEY    PTCLDY    76  57  51 E5        29.84S
6HR MIN TEMP:  76; 6HR MAX TEMP:  78;

SCOTTSDALE     PTCLDY    75  63  66 CALM      29.87R
6HR MIN TEMP:  75; 6HR MAX TEMP:  79;

MESA-GATEWAY   CLEAR     72  63  73 E6        29.87S
$$

AZZ027-028-041300-
SOUTHWEST MARICOPA COUNTY AND PINAL COUNTY

CITY           SKY/WX    TMP DP  RH WIND       PRES   REMARKS
CASA GRANDE    CLEAR     70  64  83 CALM      29.85S
6HR MIN TEMP:  70; 6HR MAX TEMP:  73;

GILA BEND      FAIR      76  61  60 E5        29.80R
6HR MIN TEMP:  75; 6HR MAX TEMP:  80;

$$

AZZ503-504-507>509-041300-
SOUTHEAST ARIZONA

CITY           SKY/WX    TMP DP  RH WIND       PRES   REMARKS
TUCSON         PTCLDY    68  64  87 SE6       29.95R
6HR MIN TEMP:  68; 6HR MAX TEMP:  71;

DAVIS-MONTHAN  CLEAR     67  64  90 NE3       29.93R
6HR MIN TEMP:  67; 6HR MAX TEMP:  70; 6HR PCP: TRACE;

NOGALES        MOCLDY    62  58  86 E6        30.01R
6HR MIN TEMP:  61; 6HR MAX TEMP:  63;

SIERRA VISTA   CLOUDY    63  60  90 NW3       30.06R
6HR MIN TEMP:  60; 6HR MAX TEMP:  64;

DOUGLAS        CLOUDY    64  60  87 SE5       30.04R
6HR MIN TEMP:  61; 6HR MAX TEMP:  64;

SAFFORD        MOCLDY    69  61  75 E5        29.95R
6HR MIN TEMP:  69; 6HR MAX TEMP:  73;

$$

AZZ020-021-025-026-031-041300-
SOUTHWEST ARIZONA

CITY           SKY/WX    TMP DP  RH WIND       PRES   REMARKS
YUMA           CLEAR     85  71  63 SE10      29.73R
6HR MIN TEMP:  85; 6HR MAX TEMP:  88;

$$

CAZ031-033-041-043-047-048-061-041300-
SOUTHERN CALIFORNIA

CITY           SKY/WX    TMP DP  RH WIND       PRES   REMARKS
DOWNTOWN L.A.  CLOUDY    69  57  65 SE5       29.85S
6HR MIN TEMP:  66; 6HR MAX TEMP:  69;

L.A. AIRPORT   CLOUDY    68  59  73 E6        29.85F
6HR MIN TEMP:  67; 6HR MAX TEMP:  68;

SAN DIEGO      MOCLDY    70  58  65 CALM      29.87S
6HR MIN TEMP:  69; 6HR MAX TEMP:  71;

BURBANK        CLOUDY    66  55  68 SE9       29.85F
6HR MIN TEMP:  66; 6HR MAX TEMP:  67;

ONTARIO        CLOUDY    65  56  72 W7        29.87S
6HR MIN TEMP:  62; 6HR MAX TEMP:  65;

RIVERSIDE      CLOUDY    65  57  75 CALM      29.87S
6HR MIN TEMP:  63; 6HR MAX TEMP:  66;

PALM SPRINGS   CLEAR     75  53  46 NW6       29.76R
6HR MIN TEMP:  75; 6HR MAX TEMP:  84;

EL CENTRO NAS  CLEAR     80  45  28 NW6       29.72R
6HR MIN TEMP:  78; 6HR MAX TEMP:  88;

IMPERIAL       PTCLDY    84  69  60 NE3       29.70R
6HR MIN TEMP:  82; 6HR MAX TEMP:  90;

BLYTHE         CLEAR     82  66  58 CALM      29.74R
6HR MIN TEMP:  81; 6HR MAX TEMP:  89;

NEEDLES        CLEAR     84  61  45 S5        29.76R
6HR MIN TEMP:  84; 6HR MAX TEMP:  91;

$$

NVZ020-UTZ003-041300-
SOUTHERN NEVADA-UTAH

CITY           SKY/WX    TMP DP  RH WIND       PRES   REMARKS
LAS VEGAS      PTCLDY    78  36  21 S5        29.74S
6HR MIN TEMP:  77; 6HR MAX TEMP:  88;

SALT LAKE CITY PTCLDY    73  35  25 S17       29.83R
6HR MIN TEMP:  73; 6HR MAX TEMP:  78;

$$

NMZ009-TXZ055-041300-
NEW MEXICO-WEST TEXAS

CITY           SKY/WX    TMP DP  RH WIND       PRES   REMARKS
ALBUQUERQUE    CLOUDY    65  49  56 SE6       30.08S
6HR MIN TEMP:  65; 6HR MAX TEMP:  75;

EL PASO        MOCLDY    74  55  51 E6        29.97S
6HR MIN TEMP:  74; 6HR MAX TEMP:  82;

$$


........................KEY........................
SKY/WX - SKY CONDITION/WEATHER
TMP    - TEMPERATURE IN FAHRENHEIT
DP     - DEW POINT IN FAHRENHEIT
RH     - RELATIVE HUMIDITY IN PERCENT
WIND   - DIRECTION AND SPEED IN MILES PER HOUR (MPH)
VRB    - VARIABLE WIND DIRECTION
PRES   - MEAN SEA LEVEL PRESSURE IN INCHES OF MERCURY
         F - FALLING PRESSURE   R - RISING PRESSURE
         S - STEADY PRESSURE
VSB    - VISIBILITY IN MILES
HX     - HEAT INDEX IN FAHRENHEIT
WCI    - WIND CHILL INDEX IN FAHRENHEIT
TC     - TEMPERATURE IN CELSIUS WHICH IS ALSO KNOWN AS
         TEMPERATURE IN CENTIGRADE
AFB    - AIR FORCE BASE
         LUKE AFB IS LUKE AIR FORCE BASE
         DAVIS-MONTHAN IS DAVIS-MONTHAN AIR FORCE BASE
NAS    - NAVAL AIR STATION
         EL CENTRO NAS IS EL CENTRO NAVAL AIR STATION
N/A    - NOT AVAILABLE



USA.gov is the U.S. government's official web portal to all federal, state and local government web resources and services.